TimePDT,TemperatureF,Dew PointF,Humidity,Sea Level PressureIn,VisibilityMPH,Wind Direction,Wind SpeedMPH,Gust SpeedMPH,PrecipitationIn,Events,Conditions,WindDirDegrees,DateUTC
12:15 AM,60.8,48.2,63,30.13,10.0,West,6.9,-,N/A,,Clear,270,2013-09-06 07:15:00
12:35 AM,62.6,48.2,59,30.13,9.0,WNW,3.5,-,N/A,,Clear,290,2013-09-06 07:35:00
12:55 AM,62.6,48.2,59,30.13,10.0,Calm,Calm,-,N/A,,Clear,0,2013-09-06 07:55:00
1:15 AM,60.8,48.2,63,30.13,9.0,West,4.6,-,N/A,,Clear,280,2013-09-06 08:15:00
1:35 AM,60.8,48.2,63,30.12,10.0,Calm,Calm,-,N/A,,Clear,0,2013-09-06 08:35:00
1:55 AM,60.8,50.0,68,30.12,10.0,NW,3.5,-,N/A,,Clear,320,2013-09-06 08:55:00
2:15 AM,59.0,48.2,67,30.12,9.0,WNW,5.8,-,N/A,,Clear,290,2013-09-06 09:15:00
2:35 AM,60.8,48.2,63,30.12,10.0,West,5.8,-,N/A,,Clear,260,2013-09-06 09:35:00
2:55 AM,59.0,50.0,72,30.11,10.0,WNW,3.5,-,N/A,,Clear,300,2013-09-06 09:55:00
3:15 AM,62.6,50.0,63,30.11,10.0,WNW,3.5,-,N/A,,Clear,290,2013-09-06 10:15:00
3:35 AM,60.8,50.0,68,30.11,10.0,WNW,4.6,-,N/A,,Clear,300,2013-09-06 10:35:00
3:55 AM,60.8,50.0,68,30.11,10.0,Calm,Calm,-,N/A,,Clear,0,2013-09-06 10:55:00
4:15 AM,59.0,50.0,72,30.10,10.0,Calm,Calm,-,N/A,,Clear,0,2013-09-06 11:15:00
4:35 AM,57.2,50.0,77,30.10,10.0,Calm,Calm,-,N/A,,Clear,0,2013-09-06 11:35:00
4:55 AM,57.2,48.2,72,30.10,10.0,SSE,3.5,-,N/A,,Clear,160,2013-09-06 11:55:00
5:15 AM,55.4,48.2,77,30.10,8.0,North,3.5,-,N/A,,Clear,360,2013-09-06 12:15:00
5:35 AM,55.4,48.2,77,30.10,10.0,SE,6.9,-,N/A,,Clear,130,2013-09-06 12:35:00
5:55 AM,55.4,48.2,77,30.10,10.0,Calm,Calm,-,N/A,,Clear,0,2013-09-06 12:55:00
6:15 AM,55.4,48.2,77,30.10,9.0,Calm,Calm,-,N/A,,Clear,0,2013-09-06 13:15:00
6:35 AM,53.6,48.2,82,30.11,8.0,ESE,4.6,-,N/A,,Clear,110,2013-09-06 13:35:00
6:55 AM,55.4,48.2,77,30.11,7.0,Calm,Calm,-,N/A,,Clear,0,2013-09-06 13:55:00
7:15 AM,57.2,48.2,72,30.11,6.0,East,3.5,-,N/A,,Haze,90,2013-09-06 14:15:00
7:35 AM,59.0,48.2,67,30.12,6.0,Calm,Calm,-,N/A,,Haze,0,2013-09-06 14:35:00
7:55 AM,62.6,50.0,63,30.12,6.0,Calm,Calm,-,N/A,,Haze,0,2013-09-06 14:55:00
8:15 AM,64.4,50.0,59,30.11,7.0,Calm,Calm,-,N/A,,Clear,0,2013-09-06 15:15:00
8:35 AM,68.0,51.8,56,30.11,8.0,Calm,Calm,-,N/A,,Clear,0,2013-09-06 15:35:00
8:55 AM,71.6,51.8,50,30.11,9.0,Calm,Calm,-,N/A,,Clear,0,2013-09-06 15:55:00
9:15 AM,73.4,50.0,44,30.11,10.0,Calm,Calm,-,N/A,,Clear,0,2013-09-06 16:15:00
9:35 AM,75.2,48.2,38,30.11,10.0,Calm,Calm,-,N/A,,Clear,0,2013-09-06 16:35:00
9:55 AM,78.8,46.4,32,30.11,10.0,West,3.5,-,N/A,,Clear,260,2013-09-06 16:55:00
10:15 AM,80.6,46.4,30,30.10,10.0,South,4.6,-,N/A,,Clear,190,2013-09-06 17:15:00
10:35 AM,82.4,44.6,26,30.10,10.0,Calm,Calm,-,N/A,,Clear,0,2013-09-06 17:35:00
10:55 AM,86.0,41.0,20,30.10,10.0,NW,8.1,-,N/A,,Clear,310,2013-09-06 17:55:00
11:15 AM,87.8,41.0,19,30.10,10.0,NW,4.6,-,N/A,,Clear,320,2013-09-06 18:15:00
11:35 AM,87.8,41.0,19,30.10,10.0,NNW,5.8,-,N/A,,Clear,340,2013-09-06 18:35:00
11:55 AM,87.8,41.0,19,30.09,10.0,NW,6.9,-,N/A,,Clear,320,2013-09-06 18:55:00
12:15 PM,89.6,41.0,18,30.09,10.0,NW,15.0,18.4,N/A,,Clear,320,2013-09-06 19:15:00
12:35 PM,89.6,39.2,17,30.09,10.0,NW,16.1,23.0,N/A,,Clear,310,2013-09-06 19:35:00
12:55 PM,89.6,39.2,17,30.08,10.0,NW,18.4,-,N/A,,Clear,320,2013-09-06 19:55:00
1:15 PM,89.6,39.2,17,30.08,10.0,NW,20.7,-,N/A,,Clear,320,2013-09-06 20:15:00
1:35 PM,89.6,39.2,17,30.07,10.0,NW,20.7,25.3,N/A,,Clear,320,2013-09-06 20:35:00
1:55 PM,89.6,39.2,17,30.06,10.0,NNW,17.3,24.2,N/A,,Clear,330,2013-09-06 20:55:00
2:15 PM,89.6,37.4,16,30.06,10.0,NW,19.6,26.5,N/A,,Clear,320,2013-09-06 21:15:00
2:35 PM,87.8,37.4,17,30.05,10.0,NW,17.3,24.2,N/A,,Clear,320,2013-09-06 21:35:00
2:55 PM,89.6,37.4,16,30.04,10.0,NW,17.3,24.2,N/A,,Clear,320,2013-09-06 21:55:00
3:15 PM,89.6,35.6,15,30.04,10.0,NW,15.0,23.0,N/A,,Clear,320,2013-09-06 22:15:00
3:35 PM,87.8,37.4,17,30.03,10.0,NW,18.4,24.2,N/A,,Clear,320,2013-09-06 22:35:00
3:55 PM,86.0,39.2,19,30.03,10.0,NW,17.3,-,N/A,,Clear,310,2013-09-06 22:55:00
4:15 PM,86.0,42.8,22,30.03,10.0,NW,15.0,-,N/A,,Clear,320,2013-09-06 23:15:00
4:35 PM,84.2,44.6,25,30.03,9.0,NW,15.0,19.6,N/A,,Clear,310,2013-09-06 23:35:00
4:55 PM,82.4,44.6,26,30.03,10.0,NNW,17.3,-,N/A,,Clear,330,2013-09-06 23:55:00
5:15 PM,82.4,44.6,26,30.03,10.0,NW,17.3,-,N/A,,Clear,320,2013-09-07 00:15:00
5:35 PM,80.6,46.4,30,30.03,10.0,NW,17.3,-,N/A,,Clear,320,2013-09-07 00:35:00
5:55 PM,80.6,46.4,30,30.03,10.0,NW,15.0,18.4,N/A,,Clear,310,2013-09-07 00:55:00
6:15 PM,78.8,46.4,32,30.03,10.0,NW,12.7,-,N/A,,Clear,320,2013-09-07 01:15:00
6:35 PM,77.0,48.2,36,30.03,10.0,NW,15.0,-,N/A,,Clear,310,2013-09-07 01:35:00
6:55 PM,75.2,48.2,38,30.03,10.0,NW,12.7,-,N/A,,Clear,310,2013-09-07 01:55:00
7:15 PM,73.4,48.2,41,30.04,10.0,NW,9.2,-,N/A,,Clear,320,2013-09-07 02:15:00
7:35 PM,71.6,48.2,43,30.04,10.0,NW,9.2,-,N/A,,Clear,320,2013-09-07 02:35:00
7:55 PM,71.6,48.2,43,30.05,10.0,NW,6.9,-,N/A,,Clear,310,2013-09-07 02:55:00
8:15 PM,69.8,48.2,46,30.06,10.0,NW,9.2,-,N/A,,Clear,310,2013-09-07 03:15:00
8:35 PM,68.0,48.2,49,30.06,10.0,West,4.6,-,N/A,,Clear,270,2013-09-07 03:35:00
8:55 PM,68.0,48.2,49,30.07,10.0,WSW,5.8,-,N/A,,Clear,240,2013-09-07 03:55:00
9:15 PM,68.0,48.2,49,30.07,10.0,West,4.6,-,N/A,,Clear,270,2013-09-07 04:15:00
9:35 PM,68.0,48.2,49,30.07,10.0,NW,5.8,-,N/A,,Clear,320,2013-09-07 04:35:00
9:55 PM,68.0,48.2,49,30.08,10.0,WSW,3.5,-,N/A,,Clear,250,2013-09-07 04:55:00
10:15 PM,66.2,48.2,52,30.08,10.0,West,4.6,-,N/A,,Clear,280,2013-09-07 05:15:00
10:35 PM,66.2,48.2,52,30.08,10.0,WSW,4.6,-,N/A,,Clear,250,2013-09-07 05:35:00
10:55 PM,64.4,48.2,56,30.08,10.0,Calm,Calm,-,N/A,,Clear,0,2013-09-07 05:55:00
11:15 PM,62.6,46.4,55,30.08,10.0,Calm,Calm,-,N/A,,Clear,0,2013-09-07 06:15:00
11:55 PM,60.8,48.2,63,30.08,10.0,SE,5.8,-,N/A,,Clear,130,2013-09-07 06:55:00